TimePST,TemperatureF,Dew PointF,Humidity,Sea Level PressureIn,VisibilityMPH,Wind Direction,Wind SpeedMPH,Gust SpeedMPH,PrecipitationIn,Events,Conditions,WindDirDegrees,DateUTC
12:15 AM,24.8,21.2,86,30.30,10.0,Calm,Calm,-,N/A,,Clear,0,2013-02-01 08:15:00
12:35 AM,24.8,19.4,80,30.29,10.0,Calm,Calm,-,N/A,,Clear,0,2013-02-01 08:35:00
12:55 AM,24.8,19.4,80,30.30,10.0,Calm,Calm,-,N/A,,Clear,0,2013-02-01 08:55:00
1:15 AM,24.8,19.4,80,30.30,10.0,Calm,Calm,-,N/A,,Clear,0,2013-02-01 09:15:00
1:35 AM,23.0,19.4,86,30.30,10.0,Calm,Calm,-,N/A,,Clear,0,2013-02-01 09:35:00
1:55 AM,23.0,19.4,86,30.30,10.0,Calm,Calm,-,N/A,,Clear,0,2013-02-01 09:55:00
2:15 AM,23.0,19.4,86,30.30,10.0,Calm,Calm,-,N/A,,Clear,0,2013-02-01 10:15:00
2:35 AM,23.0,19.4,86,30.29,10.0,Calm,Calm,-,N/A,,Clear,0,2013-02-01 10:35:00
2:55 AM,23.0,19.4,86,30.29,10.0,Calm,Calm,-,N/A,,Clear,0,2013-02-01 10:55:00
3:15 AM,23.0,19.4,86,30.28,10.0,WNW,3.5,-,N/A,,Clear,290,2013-02-01 11:15:00
3:35 AM,23.0,19.4,86,30.28,10.0,Calm,Calm,-,N/A,,Clear,0,2013-02-01 11:35:00
3:55 AM,23.0,19.4,86,30.29,10.0,West,4.6,-,N/A,,Clear,280,2013-02-01 11:55:00
4:15 AM,23.0,19.4,86,30.29,10.0,Calm,Calm,-,N/A,,Clear,0,2013-02-01 12:15:00
4:35 AM,21.2,19.4,93,30.28,10.0,Calm,Calm,-,N/A,,Clear,0,2013-02-01 12:35:00
4:55 AM,21.2,17.6,86,30.28,10.0,Calm,Calm,-,N/A,,Clear,0,2013-02-01 12:55:00
5:15 AM,21.2,19.4,93,30.28,10.0,Calm,Calm,-,N/A,,Clear,0,2013-02-01 13:15:00
5:35 AM,21.2,17.6,86,30.28,10.0,Calm,Calm,-,N/A,,Clear,0,2013-02-01 13:35:00
6:15 AM,21.2,19.4,93,30.30,10.0,Calm,Calm,-,N/A,,Clear,0,2013-02-01 14:15:00
6:35 AM,21.2,17.6,86,30.30,10.0,WNW,3.5,-,N/A,,Clear,290,2013-02-01 14:35:00
6:55 AM,21.2,17.6,86,30.30,10.0,Calm,Calm,-,N/A,,Clear,0,2013-02-01 14:55:00
7:15 AM,23.0,19.4,86,30.30,10.0,Calm,Calm,-,N/A,,Clear,0,2013-02-01 15:15:00
7:35 AM,24.8,21.2,86,30.30,10.0,Calm,Calm,-,N/A,,Clear,0,2013-02-01 15:35:00
8:15 AM,28.4,21.2,74,30.31,10.0,Calm,Calm,-,N/A,,Clear,0,2013-02-01 16:15:00
8:35 AM,32.0,23.0,69,30.31,10.0,Calm,Calm,-,N/A,,Clear,0,2013-02-01 16:35:00
8:55 AM,35.6,24.8,65,30.31,10.0,Calm,Calm,-,N/A,,Clear,0,2013-02-01 16:55:00
9:15 AM,41.0,23.0,49,30.31,10.0,Calm,Calm,-,N/A,,Clear,0,2013-02-01 17:15:00
9:35 AM,42.8,26.6,53,30.30,10.0,Calm,Calm,-,N/A,,Clear,0,2013-02-01 17:35:00
9:55 AM,44.6,21.2,39,30.30,10.0,Calm,Calm,-,N/A,,Clear,0,2013-02-01 17:55:00
10:15 AM,50.0,17.6,28,30.31,10.0,East,3.5,-,N/A,,Clear,90,2013-02-01 18:15:00
10:35 AM,51.8,14.0,22,30.31,10.0,Calm,Calm,-,N/A,,Clear,0,2013-02-01 18:35:00
10:55 AM,51.8,10.4,19,30.30,10.0,Calm,Calm,-,N/A,,Clear,0,2013-02-01 18:55:00
11:15 AM,53.6,12.2,19,30.30,10.0,ENE,6.9,-,N/A,,Clear,70,2013-02-01 19:15:00
11:35 AM,55.4,14.0,20,30.30,10.0,ENE,5.8,-,N/A,,Clear,60,2013-02-01 19:35:00
11:55 AM,55.4,12.2,18,30.29,10.0,ENE,6.9,-,N/A,,Clear,60,2013-02-01 19:55:00
12:15 PM,55.4,12.2,18,30.28,10.0,ENE,8.1,-,N/A,,Clear,70,2013-02-01 20:15:00
12:35 PM,55.4,14.0,20,30.27,10.0,East,5.8,-,N/A,,Clear,90,2013-02-01 20:35:00
12:55 PM,53.6,14.0,21,30.27,10.0,ENE,5.8,-,N/A,,Clear,70,2013-02-01 20:55:00
1:15 PM,53.6,12.2,19,30.27,10.0,ENE,9.2,-,N/A,,Clear,70,2013-02-01 21:15:00
1:35 PM,53.6,12.2,19,30.27,10.0,ENE,8.1,-,N/A,,Clear,60,2013-02-01 21:35:00
2:15 PM,53.6,17.6,24,30.27,10.0,East,5.8,-,N/A,,Clear,90,2013-02-01 22:15:00
2:35 PM,53.6,14.0,21,30.27,10.0,ENE,6.9,-,N/A,,Clear,70,2013-02-01 22:35:00
2:55 PM,51.8,12.2,21,30.27,10.0,Calm,Calm,-,N/A,,Clear,0,2013-02-01 22:55:00
3:15 PM,50.0,26.6,40,30.27,10.0,West,6.9,-,N/A,,Clear,260,2013-02-01 23:15:00
3:35 PM,50.0,24.8,37,30.27,10.0,West,8.1,-,N/A,,Clear,260,2013-02-01 23:35:00
3:55 PM,50.0,24.8,37,30.27,10.0,WSW,4.6,-,N/A,,Clear,250,2013-02-01 23:55:00
4:15 PM,50.0,24.8,37,30.27,10.0,WSW,3.5,-,N/A,,Clear,240,2013-02-02 00:15:00
4:35 PM,50.0,21.2,32,30.28,10.0,Calm,Calm,-,N/A,,Clear,0,2013-02-02 00:35:00
4:55 PM,46.4,21.2,37,30.28,10.0,East,4.6,-,N/A,,Clear,100,2013-02-02 00:55:00
5:15 PM,44.6,23.0,43,30.28,10.0,Calm,Calm,-,N/A,,Clear,0,2013-02-02 01:15:00
5:35 PM,42.8,24.8,49,30.30,10.0,Calm,Calm,-,N/A,,Clear,0,2013-02-02 01:35:00
5:55 PM,41.0,26.6,57,30.30,10.0,Calm,Calm,-,N/A,,Clear,0,2013-02-02 01:55:00
6:15 PM,37.4,26.6,65,30.31,10.0,Calm,Calm,-,N/A,,Clear,0,2013-02-02 02:15:00
6:35 PM,35.6,24.8,65,30.31,10.0,Calm,Calm,-,N/A,,Clear,0,2013-02-02 02:35:00
6:55 PM,35.6,24.8,65,30.32,10.0,Calm,Calm,-,N/A,,Clear,0,2013-02-02 02:55:00
7:15 PM,33.8,24.8,70,30.33,10.0,Calm,Calm,-,N/A,,Clear,0,2013-02-02 03:15:00
7:35 PM,33.8,24.8,70,30.33,10.0,Calm,Calm,-,N/A,,Clear,0,2013-02-02 03:35:00
7:55 PM,32.0,24.8,75,30.33,10.0,Calm,Calm,-,N/A,,Clear,0,2013-02-02 03:55:00
8:15 PM,32.0,24.8,75,30.34,10.0,Calm,Calm,-,N/A,,Clear,0,2013-02-02 04:15:00
8:35 PM,32.0,23.0,69,30.34,10.0,Calm,Calm,-,N/A,,Clear,0,2013-02-02 04:35:00
8:55 PM,32.0,23.0,69,30.34,10.0,Calm,Calm,-,N/A,,Clear,0,2013-02-02 04:55:00
9:15 PM,32.0,23.0,69,30.35,10.0,Calm,Calm,-,N/A,,Clear,0,2013-02-02 05:15:00
9:35 PM,32.0,24.8,75,30.35,10.0,Calm,Calm,-,N/A,,Clear,0,2013-02-02 05:35:00
9:55 PM,30.2,23.0,75,30.35,10.0,Calm,Calm,-,N/A,,Clear,0,2013-02-02 05:55:00
10:15 PM,30.2,23.0,75,30.35,10.0,Calm,Calm,-,N/A,,Clear,0,2013-02-02 06:15:00
10:35 PM,28.4,23.0,80,30.36,10.0,Calm,Calm,-,N/A,,Clear,0,2013-02-02 06:35:00
10:55 PM,28.4,23.0,80,30.36,10.0,Calm,Calm,-,N/A,,Clear,0,2013-02-02 06:55:00
11:15 PM,28.4,23.0,80,30.36,10.0,Calm,Calm,-,N/A,,Clear,0,2013-02-02 07:15:00
11:35 PM,28.4,23.0,80,30.35,10.0,Calm,Calm,-,N/A,,Clear,0,2013-02-02 07:35:00
11:55 PM,28.4,23.0,80,30.36,10.0,Calm,Calm,-,N/A,,Clear,0,2013-02-02 07:55:00